Location: Decatur(IL)
(39.8400°N, 88.9550°W)
Time: 09:15:50
(UTC-05:00)

Cosmos 1953 - Visible Passes

Search period start: 01 October 2014 00:00
Search period end: 11 October 2014 00:00
Orbit: 549 x 571 km, 82.5° (Epoch: 30 September)

Date Brightness Start Highest point End Pass type
(mag) Time Alt. Az. Time Alt. Az. Time Alt. Az.
01 Oct 5.0 05:00:30 10° NNE 05:03:39 21° ENE 05:06:49 10° SE visible
02 Oct 4.7 04:59:06 10° NNE 05:02:31 25° ENE 05:05:55 10° SE visible
02 Oct 3.8 18:56:06 10° SSW 18:59:54 42° W 19:03:45 10° N visible
03 Oct 4.4 04:57:44 10° NNE 05:01:21 30° ENE 05:04:58 10° SE visible
04 Oct 4.0 04:56:24 10° N 05:00:11 35° ENE 05:03:57 10° SE visible
05 Oct 3.6 04:55:05 10° N 04:59:00 42° E 05:02:53 10° SSE visible
05 Oct 5.0 18:53:01 10° SW 18:56:21 25° WNW 18:59:43 10° NNW visible
06 Oct 3.2 04:53:47 10° N 04:57:47 51° E 05:01:47 10° SSE visible
06 Oct 4.3 06:32:47 10° WNW 06:33:53 11° W 06:35:00 10° W visible
06 Oct 5.3 18:52:04 10° SW 18:55:10 21° WNW 18:58:17 10° NNW visible
07 Oct 2.8 04:52:30 10° N 04:56:34 62° E 05:00:37 10° SSE visible
08 Oct 2.4 04:51:13 10° N 04:55:19 75° E 04:59:25 10° SSE visible
08 Oct 5.5 18:50:21 10° WSW 18:52:47 15° WNW 18:55:14 10° NW visible
09 Oct 5.0 04:49:57 10° N 04:50:11 11° N 04:50:11 11° N visible
09 Oct 5.6 18:49:39 10° W 18:51:35 13° WNW 18:53:32 10° NW visible
10 Oct 5.8 18:49:14 10° W 18:50:24 11° WNW 18:51:33 10° NW visible
